XJS C (45249 NORAD) Tracking and Keplerian Element Data

This shows tracking and keplerian element data for the satellite.

Feedback or suggestion? Click here.




ElementValue
Catalog45249
NameXJS C
Epoch Orbit2055
Epoch Day185.09860773
Epoch Year2020
RAAN309.7871
Inclination35.0112
Eccentricity0.0009558
Argument of Perigee15.056
Mean Anonmoly152.2264
Mean Motion15.2826221
Decay Rate1.194E-05
L11 45249U 20014A 20185.09860773 .00001194 00000-0 43643-4 0 9996
L22 45249 35.0112 309.7871 0009558 15.0560 152.2264 15.28262210 20550

Live tracking and technical data element details for XJS C (NORAD 45249). XJS C can be tracked NOW for your location showing map with azimuth and elevation plus other details from your city location.

Track the satellite on the map from your city or location and see movement details for azimuth, elevation, latitude, longitude, range, height, and movement on the map or in text.







IsCatalogInMostPopularTable: catalog: 45249, numindb: 25
Update: records affected: 1



GetName: 45249 XJS C

Hit Count: updated at: Fri, 03 Jul 2020 15:43:42 GMT